STARLINK-34815 (65099 NORAD) Tracking and Keplerian Element Data

This shows tracking and keplerian element data for the satellite.

Feedback or suggestion? Click here.




ElementValue
Catalog65099
NameSTARLINK-34815
Epoch Orbit2121
Epoch Day353.57203762
Epoch Year2025
RAAN38.7831
Inclination53.1591
Eccentricity0.0001189
Argument of Perigee78.0651
Mean Anonmoly282.0483
Mean Motion15.3019925
Decay Rate9.957E-05
L11 65099U 25167X 25353.57203762 .00009957 00000+0 34787-3 0 9991
L22 65099 53.1591 38.7831 0001189 78.0651 282.0483 15.30199250 21219



Live tracking and technical data element details for STARLINK-34815 (NORAD 65099). STARLINK-34815 can be tracked NOW for your location showing map with azimuth and elevation plus other details from your city location.







IsCatalogInMostPopularTable: catalog: 65099, numindb: 4
Update: records affected: 1



GetName: 65099 STARLINK-34815

Hit Count: updated at: Mon, 09 Feb 2026 08:59:36 GMT